Hourly Data Report for September 03, 2017

All times are specified in Local Standard Time (LST). Add 1 hour to adjust for Daylight Saving Time where and when it is observed.

BAS CARAQUET
NEW BRUNSWICK

47°48'08.000" N
64°50'00.000" W
5.00 m
8100467
71598
WXS

Download Data

Hourly Data (September 2017)
Hourly Data Report for September 3, 2017
Temp Definition
°C
Dew Point Temp Definition
°C
Rel Hum Definition
%
Wind Dir Definition
10's deg

Wind Spd Definition
km/h
Visibility Definition
km
Stn Press Definition
kPa
Hmdx Definition


Wind Chill Definition


Weather Definition


TIME
00:00 8.8 8.0 95 16 6   102.16     LegendNANA
01:00 8.8 8.5 98 17 6   102.19     LegendNANA
02:00 8.2 7.9 98 16 5   102.18     LegendNANA
03:00 7.3 7.0 98 18 5   102.20     LegendNANA
04:00 5.2 4.9 98   0   102.23     LegendNANA
05:00 5.4 5.1 99 26 1   102.26     LegendNANA
06:00 4.8 4.6 99 26 2   102.29     LegendNANA
07:00 10.2 10.0 99 25 4   102.32     LegendNANA
08:00 12.8 12.7 99 26 4   102.33     LegendNANA
09:00 14.6 14.2 97 2 3   102.31     LegendNANA
10:00 17.0 13.6 81 16 9   102.31     LegendNANA
11:00 18.2 11.7 66 14 8   102.23     LegendNANA
12:00 20.2 11.9 59 14 10   102.12     LegendNANA
13:00 17.8 12.4 71 16 13   102.07     LegendNANA
14:00 18.6 12.6 68 14 13   102.01     LegendNANA
15:00 18.1 11.1 64 14 14   101.95     LegendNANA
16:00 18.2 11.3 64 15 17   101.88     LegendNANA
17:00 18.0 11.4 65 15 15   101.81     LegendNANA
18:00 16.8 12.2 74 15 14   101.79     LegendNANA
19:00 15.4 12.0 80 14 11   101.69     LegendNANA
20:00 15.8 11.6 76 14 13   101.64     LegendNANA
21:00 15.5 12.1 80 13 9   101.53     LegendNANA
22:00 15.8 11.6 76 14 11   101.42     LegendNANA
23:00 15.5 11.4 76 15 12   101.31     LegendNANA

Notes on Data Quality.

Legend

  • E = Estimated
  • M = Missing
  • NA = Not Available
  • ‡ = Partner data that is not subject to review by the National Climate Archives
Date modified: